Regional Weather Roundup
Issued by NWS

Home | Current Version | Previous Version | Text Only | Print | Product List | Glossary On
Versions: 1 2 3 4 5 6 7 8 9 10 11 12 13 14 15 16 17 18 19 20 21 22 23 24 25 26 27 28 29 30 31 32 33 34 35 36 37 38 39 40 41 42 43 44 45 46 47 48 49 50
000
ASUS44 KFWD 280810
RWRTX
NORTH TEXAS HOURLY WEATHER ROUNDUP
NATIONAL WEATHER SERVICE FORT WORTH TX
300 AM CDT MON JUL 28 2014

NOTE: "FAIR" INDICATES FEW OR NO CLOUDS BELOW 12,000 FEET WITH NO
SIGNIFICANT WEATHER AND/OR OBSTRUCTIONS TO VISIBILITY.

TXZ118-119-280900-
DALLAS/FORT WORTH METROPLEX

CITY           SKY/WX    TMP DP  RH WIND       PRES   REMARKS
DFW AIRPORT    MOCLDY    87  68  52 SW12      30.02S HX  90
DALLAS LOVE    PTCLDY    87  69  54 SW7       30.02S HX  91
FTW MEACHAM    CLEAR     86  68  54 S10       30.02S
DAL-EXECUTIVE  PTCLDY    87  69  54 VRB5      30.02S HX  91
FTW-ALLIANCE   PTCLDY    84  67  56 S5        30.02S
FTW-NAS-JRB    CLEAR     87  66  49 S10       30.06S
FTW-SPINKS     CLEAR     83  68  60 S7        30.05R
ARLINGTON      CLEAR     84  68  58 S6        30.03R
GRAND PRAIRIE  CLEAR     84  67  56 S6        30.04R
ADDISON        CLEAR     87  67  50 S5        30.04S
MESQUITE       CLEAR     77  71  83 S3        30.03R
LANCASTER      CLEAR     82  68  63 CALM      30.03S
$$

TXZ091>094-102>105-117-120-121-131>134-280900-
NORTH CENTRAL TEXAS

CITY           SKY/WX    TMP DP  RH WIND       PRES   REMARKS
SHRMAN/DENISON PTCLDY    83  70  65 E3        30.06R
GAINESVILLE    PTCLDY    81  75  82 N9        30.08R
BOWIE          CLEAR     78  69  72 N3        30.06R
BRIDGEPORT     CLEAR     77  65  66 CALM      30.06R
DECATUR        CLEAR     84  64  49 S10       30.05R
DENTON         PTCLDY    81  66  60 CALM      30.03R
MCKINNEY       MOCLDY    80  72  76 CALM      30.03R
GREENVILLE     CLEAR     79  72  78 CALM      30.03S
ROCKWALL       PTCLDY    80  72  77 S3        30.02S
TERRELL        PTCLDY    82  75  79 CALM      30.03R
WAXAHACHIE     CLEAR     82  67  60 SW8       30.04R
CLEBURNE       CLEAR     81  72  74 S6        30.06S
GRANBURY       CLEAR     80  67  65 CALM      30.05R
$$

TXZ083>090-098>101-113>116-127>130-139>142-154-155-280900-
WESTERN NORTH TEXAS

CITY           SKY/WX    TMP DP  RH WIND       PRES   REMARKS
WICHITA FALLS  CLEAR     83  73  72 NE12      30.06R
WF-KICKAPOO    PTCLDY    83  73  71 N10       30.07S
VERNON         CLEAR     82  65  56 NE12      30.09S
ABILENE        CLOUDY    82  62  50 S7        30.08F
ABILENE-DYESS  MOCLDY    82  63  51 S2        30.07S
BRECKENRIDGE   MOCLDY    84  63  48 S7        30.05S
GRAHAM         CLEAR     83  64  52 SE3       30.03S
MINERAL WELLS  CLEAR     80  65  59 SE3       30.04R
STEPHENVILLE   CLEAR     78  65  65 CALM      30.09S
COMANCHE       CLEAR     78  64  61 S6        30.07S
BROWNWOOD      MOCLDY    77  64  65 SE3       30.07S
COLEMAN        CLEAR     76  63  62 CALM      30.08S
BRADY          CLEAR     79  66  65 S6        30.08F
$$

TXZ143>147-156>162-174-175-280900-
CENTRAL TEXAS

CITY           SKY/WX    TMP DP  RH WIND       PRES   REMARKS
WACO           CLEAR     81  71  71 S9        30.04R
WACO-MCGREGOR  CLEAR     81  66  61 S7        30.06S
HILLSBORO      CLEAR     82  69  65 S8        30.04S
CORSICANA      CLEAR     82  71  69 SW9       30.03S
MEXIA          CLEAR     80  73  78 S9        30.03F
HEARNE         CLEAR    N/A N/A N/A CALM      30.05S
CAMERON        CLEAR     80  72  75 S9        30.04S
TEMPLE         CLEAR     79  66  65 S9        30.05F
KILLEEN        CLEAR     79  68  69 S8        30.06S
KILLEEN-SKYLRK CLEAR     81  64  57 S8        30.06S
FORT HOOD      CLEAR     82  68  62 S5        30.06S
GATESVILLE     CLEAR     81  68  65 S6        30.07F
HAMILTON       CLEAR     77  66  69 S8        30.07F
LAMPASAS       CLEAR     78  70  76 CALM      30.06S
$$

TXZ095>097-106>112-122>126-135>138-148>153-164>167-280900-
EAST TEXAS

CITY           SKY/WX    TMP DP  RH WIND       PRES   REMARKS
PARIS          PTCLDY    81  72  74 CALM      30.05R
SULPHUR SPRNGS PTCLDY    81  72  75 CALM      30.05S
CLARKSVILLE    PTCLDY    80  77  90 CALM      30.03S
MOUNT PLEASANT PTCLDY    77  75  93 CALM      30.04S
GILMER         CLEAR     79  75  89 CALM      30.05R
MINEOLA        PTCLDY    79  75  89 CALM      30.04R
TYLER          CLEAR     78  73  84 S6        30.04R
LONGVIEW       PTCLDY    78  72  81 S5        30.02S
MARSHALL       PTCLDY    78  76  91 CALM      30.04S
ATHENS         CLEAR     77  72  83 CALM      30.03R
JACKSONVILLE   CLEAR     79  74  86 SW7       30.07R
HENDERSON      CLEAR     77  74  90 CALM      30.05R
NACOGDOCHES    CLEAR     79  75  89 SW3       30.04S
LUFKIN         CLEAR     82  76  81 SW5       30.04S
$$

SUPPLEMENTAL OBSERVATIONS (CENTRAL)

CITY           SKY/WX    TMP DP  RH WIND       PRES   REMARKS
CADDO GRASSLND   N/A     79  73  83 CALM        N/A
PAT MAYSE LAKE   N/A     81  75  83 CALM        N/A
GREENVILLE       N/A     79  73  83 N7          N/A
MCGREGOR         N/A     81  70  69 S6          N/A
TEMPLE           N/A     79  70  73 S3G13       N/A
$$

SUPPLEMENTAL OBSERVATIONS (WEST)

CITY           SKY/WX    TMP DP  RH WIND       PRES   REMARKS
MILLERS CREEK    N/A     84  57  39 S3          N/A
LBJ GRASSLAND    N/A     81  64  57 SE3         N/A
GRANBURY         N/A     81  66  61 CALM        N/A
HAMBY            N/A     82  61  47 S9          N/A
IVIE RESERVOIR   N/A     81  64  57 SE3         N/A
COLORADO BEND    N/A     81  64  57 S7          N/A
$$

SUPPLEMENTAL OBSERVATIONS (EAST)

CITY           SKY/WX    TMP DP  RH WIND       PRES   REMARKS
CLARKSVILLE      N/A     79  75  89 CALM        N/A
TEXARKANA        N/A     75  72  88 CALM        N/A
GILMER           N/A     77  73  88 S1          N/A
HENDERSON        N/A     75  72  88 SW1         N/A
LUFKIN           N/A     79  77  94 MISG        N/A
N SABINE NF      N/A     75  72  88 MISG        N/A
S SABINE NF      N/A     77  73  88 SW1         N/A
$$

SUPPLEMENTAL OBSERVATIONS ARE A COLLECTION OF AUTOMATED INSTRUMENTS
THAT ARE MAINTAINED BY A VARIETY OF FEDERAL AND STATE AGENCIES.
CERTAIN ELEMENTS...SUCH AS HUMIDITY VALUES AND SUSTAINED WIND
SPEEDS...MAY BE APPROXIMATED.



USA.gov is the U.S. government's official web portal to all federal, state and local government web resources and services.